Weather History for KBFD - July, 2015

Change the Weather History Date:

Monday, July 27, 2015

  Actual Average Record
Temperature  
Mean Temperature 70 °F 65 °F  
Max Temperature 84 °F 77 °F 85 °F (1983)
Min Temperature 56 °F 53 °F 38 °F (2001)
Degree Days  
Heating Degree Days 0 0  
Month to date heating degree days 47 1  
Since 1 June heating degree days 154 146  
Since 1 July heating degree days 47 1  
Cooling Degree Days 5 2  
Month to date cooling degree days 58 62  
Year to date cooling degree days 140 112  
Since 1 June cooling degree days 96 102  
Growing Degree Days 20 (Base 50)    
Moisture  
Dew Point 57 °F    
Average Humidity 67    
Maximum Humidity 100    
Minimum Humidity 33    
Precipitation  
Precipitation 0.00 in 0.13 in 1.22 in (1984)
Month to date precipitation 2.45 3.65  
Year to date precipitation 22.35 25.30  
Sea Level Pressure  
Sea Level Pressure 30.04 in    
Wind  
Wind Speed 3 mph (NE)    
Max Wind Speed 12 mph    
Max Gust Speed 16 mph    
Visibility 7 miles    
Events Fog    
T = Trace of Precipitation, MM = Missing Value Source: NWS Daily Summary

Daily Weather History Graph

Daily Weather History Graph

Search for Another Location

Airport or City:

Trip Planner

Search our weather history database for the weather conditions in past years. The results will help you decide how hot, cold, wet, or windy it might be!

Date:

Astronomy

Jul. 27, 2015 Rise Set
Actual Time 6:03 AM EDT 8:38 PM EDT
Civil Twilight 5:31 AM EDT 9:10 PM EDT
Nautical Twilight 4:51 AM EDT 9:49 PM EDT
Astronomical Twilight 4:06 AM EDT 10:34 PM EDT
Moon 5:10 PM EDT (7/27) 2:25 AM EDT (7/27)
Length of Visible Light 15h 38m
Length of Day
14h 34m
Waxing Gibbous, 83% of the Moon is Illuminated
Jul 27
Waxing Gibbous
Jul 31
Full
Aug 6
Last Quarter
Aug 14
New
Aug 22
First Quarter

Hourly Weather History & Observations

Time (EDT) Temp. Heat Index Dew Point Humidity Pressure Visibility Wind Dir Wind Speed Gust Speed Precip Events Conditions
12:53 AM 59.0 °F - 57.0 °F 93% 29.99 in 9.0 mi Calm Calm - N/A   Clear
1:53 AM 57.9 °F - 57.0 °F 97% 29.98 in 1.8 mi Calm Calm - N/A   Clear
2:02 AM 59.0 °F - 57.0 °F 93% 30.03 in 3.0 mi Calm Calm - N/A   Clear
2:53 AM 59.0 °F - 55.9 °F 90% 29.99 in 9.0 mi Calm Calm - N/A   Partly Cloudy
3:53 AM 57.9 °F - 55.9 °F 93% 29.99 in 10.0 mi NW 3.5 mph - N/A   Scattered Clouds
4:53 AM 57.0 °F - 55.0 °F 93% 30.00 in 10.0 mi Calm Calm - N/A   Clear
5:06 AM 57.0 °F - 55.0 °F 93% 30.05 in 10.0 mi Calm Calm - N/A   Partly Cloudy
5:19 AM 57.0 °F - 55.0 °F 93% 30.05 in 10.0 mi Calm Calm - N/A   Mostly Cloudy
5:29 AM 57.0 °F - 55.0 °F 93% 30.05 in 1.5 mi Calm Calm - N/A   Overcast
5:33 AM 57.0 °F - 55.0 °F 93% 30.05 in 0.2 mi Calm Calm - N/A Fog Fog
5:53 AM 57.9 °F - 57.0 °F 97% 30.02 in 0.2 mi Calm Calm - N/A Fog Fog
6:53 AM 59.0 °F - 57.9 °F 96% 30.04 in 0.2 mi Calm Calm - N/A Fog Fog
7:44 AM 61.0 °F - 60.1 °F 97% 30.08 in 0.8 mi Calm Calm - N/A   Mist
7:51 AM 62.6 °F - 60.8 °F 94% 30.08 in 1.2 mi North - - N/A   Mostly Cloudy
7:53 AM 62.1 °F - 61.0 °F 96% 30.04 in 1.2 mi Calm Calm - N/A   Mostly Cloudy
8:00 AM 62.1 °F - 61.0 °F 96% 30.08 in 1.5 mi Calm Calm - N/A   Scattered Clouds
8:21 AM 64.9 °F - 64.0 °F 97% 30.08 in 2.0 mi Calm Calm - N/A   Clear
8:34 AM 66.0 °F - 64.0 °F 93% 30.09 in 4.0 mi Calm Calm - N/A   Clear
8:53 AM 70.0 °F - 64.0 °F 81% 30.04 in 10.0 mi East 6.9 mph - N/A   Clear
9:53 AM 73.9 °F - 63.0 °F 68% 30.05 in 10.0 mi Variable 5.8 mph - N/A   Clear
10:53 AM 75.0 °F - 62.1 °F 64% 30.06 in 10.0 mi East 10.4 mph - N/A   Scattered Clouds
11:53 AM 78.1 °F - 55.9 °F 46% 30.05 in 10.0 mi East 8.1 mph - N/A   Clear
12:53 PM 80.1 °F - 50.0 °F 35% 30.06 in 10.0 mi Calm Calm - N/A   Clear
1:53 PM 81.0 °F - 52.0 °F 36% 30.04 in 10.0 mi ENE 8.1 mph - N/A   Clear
2:53 PM 82.0 °F - 51.1 °F 34% 30.04 in 10.0 mi East 8.1 mph - N/A   Clear
3:53 PM 82.9 °F - 50.0 °F 32% 30.02 in 10.0 mi ENE 6.9 mph - N/A   Clear
4:53 PM 82.9 °F - 51.1 °F 33% 30.01 in 10.0 mi North 5.8 mph - N/A   Clear
5:53 PM 82.9 °F 81.8 °F 53.1 °F 36% 30.01 in 10.0 mi NNW 3.5 mph - N/A   Clear
6:53 PM 81.0 °F 80.7 °F 55.0 °F 41% 30.01 in 10.0 mi NE 3.5 mph - N/A   Clear
7:53 PM 77.0 °F - 59.0 °F 54% 30.02 in 10.0 mi Calm Calm - N/A   Clear
8:53 PM 69.1 °F - 57.9 °F 68% 30.03 in 10.0 mi Calm Calm - N/A   Clear
9:53 PM 66.0 °F - 59.0 °F 78% 30.05 in 10.0 mi Calm Calm - N/A   Clear
10:53 PM 64.9 °F - 60.1 °F 84% 30.06 in 10.0 mi Calm Calm - N/A   Clear
11:53 PM 62.1 °F - 57.9 °F 86% 30.07 in 10.0 mi Calm Calm - N/A   Clear